Location: Arcizac
(43.0933°N, 0.0112°E)
Time: 12:36:49
(UTC+00:00)

Abrixas rocket - Pass Details

Date: 14 December 2019
Orbit: 354 x 364 km, 48.4° (Epoch: 24 January)

Event Time Altitude Azimuth Distance (km) Brightness Sun altitude
Rises 18:19:34 0° 248° (WSW) 2,186 7.4 -20.0°
Reaches altitude 10° 18:21:36 10° 250° (WSW) 1,339 6.0 -20.4°
Enters shadow 18:24:04 54° 270° (W) 441 2.6 -20.8°
